TimeCST,TemperatureF,Dew PointF,Humidity,Sea Level PressureIn,VisibilityMPH,Wind Direction,Wind SpeedMPH,Gust SpeedMPH,PrecipitationIn,Events,Conditions,WindDirDegrees,DateUTC
12:13 AM,38.3,33.3,82,30.00,10.0,NW,6.9,-,N/A,,Overcast,310,2012-11-07 06:13:00
12:33 AM,38.3,33.6,83,30.01,10.0,NW,5.8,-,N/A,,Overcast,320,2012-11-07 06:33:00
12:53 AM,38.3,33.4,83,30.01,10.0,NW,5.8,-,N/A,,Overcast,310,2012-11-07 06:53:00
1:13 AM,38.3,33.3,82,30.01,10.0,NW,5.8,-,N/A,,Overcast,320,2012-11-07 07:13:00
1:33 AM,38.3,33.3,82,30.01,10.0,NW,6.9,-,N/A,,Overcast,320,2012-11-07 07:33:00
1:53 AM,38.3,33.3,82,30.02,10.0,NW,5.8,-,N/A,,Overcast,320,2012-11-07 07:53:00
2:13 AM,38.3,33.3,82,30.02,10.0,NW,6.9,-,N/A,,Overcast,320,2012-11-07 08:13:00
2:53 AM,38.3,33.4,83,30.04,10.0,NW,5.8,-,N/A,,Overcast,310,2012-11-07 08:53:00
3:13 AM,38.1,33.4,83,30.04,10.0,NW,3.5,-,N/A,,Overcast,320,2012-11-07 09:13:00
3:33 AM,38.3,33.4,83,30.04,10.0,WNW,4.6,-,N/A,,Overcast,300,2012-11-07 09:33:00
3:53 AM,37.8,33.3,84,30.05,10.0,WNW,3.5,-,N/A,,Overcast,300,2012-11-07 09:53:00
4:13 AM,37.6,33.3,84,30.05,10.0,NW,3.5,-,N/A,,Overcast,310,2012-11-07 10:13:00
4:33 AM,37.8,33.1,83,30.06,10.0,WNW,4.6,-,N/A,,Overcast,300,2012-11-07 10:33:00
4:53 AM,37.8,33.4,84,30.07,10.0,Calm,Calm,-,N/A,,Overcast,0,2012-11-07 10:53:00
5:13 AM,37.8,33.4,84,30.07,10.0,Calm,Calm,-,N/A,,Overcast,0,2012-11-07 11:13:00
5:33 AM,37.6,33.4,85,30.07,10.0,Calm,Calm,-,N/A,,Overcast,0,2012-11-07 11:33:00
5:53 AM,37.8,33.8,86,30.07,10.0,WNW,3.5,-,N/A,,Overcast,290,2012-11-07 11:53:00
6:13 AM,37.9,34.0,86,30.07,10.0,Calm,Calm,-,N/A,,Overcast,0,2012-11-07 12:13:00
6:33 AM,37.9,34.0,86,30.08,10.0,Calm,Calm,-,N/A,,Overcast,0,2012-11-07 12:33:00
6:53 AM,38.3,34.3,86,30.08,10.0,Calm,Calm,-,N/A,,Overcast,0,2012-11-07 12:53:00
7:13 AM,38.3,34.3,86,30.09,10.0,West,3.5,-,N/A,,Overcast,280,2012-11-07 13:13:00
7:33 AM,38.3,34.3,86,30.09,10.0,Calm,Calm,-,N/A,,Overcast,0,2012-11-07 13:33:00
7:53 AM,38.5,34.7,86,30.10,10.0,Calm,Calm,-,N/A,,Overcast,0,2012-11-07 13:53:00
8:13 AM,39.2,34.9,84,30.10,10.0,Calm,Calm,-,N/A,,Overcast,0,2012-11-07 14:13:00
8:33 AM,39.2,34.9,84,30.11,10.0,Calm,Calm,-,N/A,,Overcast,0,2012-11-07 14:33:00
8:54 AM,39.4,35.4,86,30.11,10.0,Calm,Calm,-,N/A,,Overcast,0,2012-11-07 14:54:00
9:13 AM,39.6,35.2,85,30.11,10.0,Calm,Calm,-,N/A,,Overcast,0,2012-11-07 15:13:00
9:33 AM,39.6,34.3,82,30.11,10.0,Calm,Calm,-,N/A,,Mostly Cloudy,0,2012-11-07 15:33:00
9:54 AM,41.5,34.7,77,30.11,10.0,Calm,Calm,-,N/A,,Scattered Clouds,0,2012-11-07 15:54:00
10:13 AM,42.6,35.2,75,30.12,10.0,Calm,Calm,-,N/A,,Scattered Clouds,0,2012-11-07 16:13:00
10:33 AM,43.3,35.4,74,30.11,10.0,Calm,Calm,-,N/A,,Mostly Cloudy,0,2012-11-07 16:33:00
10:54 AM,43.2,35.6,75,30.12,10.0,Calm,Calm,-,N/A,,Scattered Clouds,0,2012-11-07 16:54:00
11:13 AM,43.7,34.7,71,30.11,10.0,WSW,3.5,-,N/A,,Scattered Clouds,240,2012-11-07 17:13:00
11:33 AM,44.6,34.3,67,30.11,10.0,SW,3.5,-,N/A,,Scattered Clouds,230,2012-11-07 17:33:00
11:53 AM,45.0,33.3,64,30.09,10.0,SSW,4.6,-,N/A,,Mostly Cloudy,200,2012-11-07 17:53:00
12:13 PM,46.2,32.9,60,30.08,10.0,Calm,Calm,-,N/A,,Overcast,0,2012-11-07 18:13:00
12:33 PM,44.6,32.0,61,30.08,10.0,SW,3.5,-,N/A,,Mostly Cloudy,230,2012-11-07 18:33:00
12:53 PM,45.0,32.2,61,30.08,10.0,Calm,Calm,-,N/A,,Mostly Cloudy,0,2012-11-07 18:53:00
1:13 PM,45.0,32.7,62,30.07,10.0,SSW,3.5,-,N/A,,Overcast,210,2012-11-07 19:13:00
1:33 PM,45.5,32.2,60,30.06,10.0,Calm,Calm,-,N/A,,Overcast,0,2012-11-07 19:33:00
1:53 PM,45.5,32.0,59,30.06,10.0,SSW,3.5,-,N/A,,Overcast,200,2012-11-07 19:53:00
2:13 PM,45.1,32.4,61,30.06,10.0,SSW,4.6,-,N/A,,Overcast,200,2012-11-07 20:13:00
2:33 PM,45.1,32.9,62,30.06,10.0,SW,3.5,-,N/A,,Overcast,220,2012-11-07 20:33:00
2:53 PM,45.3,32.9,62,30.06,10.0,SSW,3.5,-,N/A,,Overcast,210,2012-11-07 20:53:00
3:13 PM,45.5,33.3,62,30.06,10.0,SSW,5.8,-,N/A,,Overcast,200,2012-11-07 21:13:00
3:38 PM,44.8,33.3,64,30.06,10.0,Calm,Calm,-,N/A,,Overcast,0,2012-11-07 21:38:00
3:53 PM,44.8,33.8,65,30.06,10.0,South,4.6,-,N/A,,Overcast,180,2012-11-07 21:53:00
4:13 PM,44.6,34.0,66,30.06,10.0,South,3.5,-,N/A,,Overcast,180,2012-11-07 22:13:00
4:33 PM,44.6,33.8,66,30.06,10.0,South,4.6,-,N/A,,Overcast,180,2012-11-07 22:33:00
4:53 PM,44.2,34.2,68,30.06,10.0,Calm,Calm,-,N/A,,Overcast,0,2012-11-07 22:53:00
5:13 PM,43.7,34.7,71,30.05,10.0,SSE,3.5,-,N/A,,Overcast,150,2012-11-07 23:13:00
5:33 PM,42.6,34.3,73,30.05,10.0,SSE,3.5,-,N/A,,Overcast,150,2012-11-07 23:33:00
5:53 PM,41.5,34.0,75,30.05,10.0,SE,3.5,-,N/A,,Mostly Cloudy,140,2012-11-07 23:53:00
6:13 PM,41.0,34.0,76,30.06,10.0,ESE,3.5,-,N/A,,Clear,120,2012-11-08 00:13:00
6:33 PM,40.1,33.4,77,30.06,10.0,Calm,Calm,-,N/A,,Clear,0,2012-11-08 00:33:00
6:53 PM,39.4,33.3,79,30.06,10.0,SE,3.5,-,N/A,,Clear,140,2012-11-08 00:53:00
7:13 PM,39.2,33.4,80,30.06,10.0,SE,3.5,-,N/A,,Clear,130,2012-11-08 01:13:00
7:33 PM,38.3,32.9,81,30.06,10.0,SE,4.6,-,N/A,,Clear,140,2012-11-08 01:33:00
7:53 PM,38.3,33.1,81,30.05,10.0,SE,4.6,-,N/A,,Clear,140,2012-11-08 01:53:00
8:13 PM,37.4,32.5,83,30.05,10.0,SE,4.6,-,N/A,,Clear,130,2012-11-08 02:13:00
8:33 PM,37.4,32.9,84,30.04,10.0,SE,3.5,-,N/A,,Clear,130,2012-11-08 02:33:00
8:53 PM,37.4,32.9,84,30.05,10.0,SE,4.6,-,N/A,,Clear,140,2012-11-08 02:53:00
9:13 PM,37.4,32.9,84,30.05,10.0,SSE,3.5,-,N/A,,Clear,150,2012-11-08 03:13:00
9:33 PM,37.4,32.9,84,30.04,10.0,SSE,4.6,-,N/A,,Clear,150,2012-11-08 03:33:00
9:53 PM,37.6,32.9,83,30.04,10.0,SE,4.6,-,N/A,,Clear,140,2012-11-08 03:53:00
10:13 PM,37.4,32.9,84,30.04,10.0,SE,4.6,-,N/A,,Clear,140,2012-11-08 04:13:00
10:33 PM,37.4,32.9,84,30.04,10.0,SSE,5.8,-,N/A,,Clear,150,2012-11-08 04:33:00
10:53 PM,37.4,32.4,82,30.04,10.0,SSE,4.6,-,N/A,,Clear,150,2012-11-08 04:53:00
11:13 PM,37.4,32.4,82,30.04,10.0,SE,4.6,-,N/A,,Clear,140,2012-11-08 05:13:00
11:33 PM,36.5,32.0,84,30.04,10.0,SSE,4.6,-,N/A,,Clear,150,2012-11-08 05:33:00
11:53 PM,36.5,32.0,84,30.04,10.0,SSE,4.6,-,N/A,,Clear,150,2012-11-08 05:53:00